Weather History for Springfield, OH

Change the Weather History Date:

Thursday, April 11, 2013

  Actual Average (KDAY) Record (KDAY)
Temperature  
Mean Temperature 58 °F 50 °F  
Max Temperature 63 °F 60 °F 88 °F (1930)
Min Temperature 53 °F 40 °F 26 °F (1989)
Degree Days  
Heating Degree Days 7 15  
Month to date heating degree days 187  
Since 1 July heating degree days 5226  
Cooling Degree Days 0 0  
Month to date cooling degree days 0  
Year to date cooling degree days 0  
Growing Degree Days 8 (Base 50)    
Moisture  
Dew Point 58 °F    
Average Humidity 97    
Maximum Humidity 100    
Minimum Humidity 78    
Precipitation  
Precipitation 1.28 in 0.14 in 1.22 in (2013)
Month to date precipitation 1.43  
Year to date precipitation 9.72  
Snow  
Snow 0.00 in 0.00 in 0.10 in (1990)
Month to date snowfall 0.4  
Since 1 July snowfall 23.1  
Snow Depth -    
Sea Level Pressure  
Sea Level Pressure 29.72 in    
Wind  
Wind Speed 9 mph (SSE)    
Max Wind Speed 15 mph    
Max Gust Speed 22 mph    
Visibility 3 miles    
Events Rain , Thunderstorm    
T = Trace of Precipitation, MM = Missing Value Source: NWS Daily Summary

Daily Weather History Graph

Daily Weather History Graph

Search for Another Location

Airport:

Trip Planner

Search our weather history database for the weather conditions in past years. The results will help you decide how hot, cold, wet, or windy it might be!

Date:

Astronomy

Apr. 11, 2013 Rise Set
Actual Time 7:03 AM EDT 8:09 PM EDT
Civil Twilight 6:35 AM EDT 8:37 PM EDT
Nautical Twilight 6:02 AM EDT 9:10 PM EDT
Astronomical Twilight 5:28 AM EDT 9:45 PM EDT
Moon 7:34 AM EDT (4/11) 9:43 PM EDT (4/11)
Length of Visible Light 14h 02m
Length of Day
13h 06m
New Moon, 2% of the Moon is Illuminated
Apr 11
New Moon
Apr 18
First Quarter
Apr 25
Full
May 2
Last Quarter
May 9
New

Hourly Weather History & Observations

Time (EDT) Temp. Dew Point Humidity Pressure Visibility Wind Dir Wind Speed Gust Speed Precip Events Conditions
12:56 AM 56.8 °F 55.9 °F 97% 29.84 in 6.0 mi ESE 11.5 mph - N/A   Clear
1:56 AM 55.9 °F 54.9 °F 96% 29.83 in 6.0 mi ESE 11.5 mph - N/A   Clear
2:56 AM 57.9 °F 54.9 °F 90% 29.79 in 8.0 mi SE 12.7 mph - N/A   Clear
3:56 AM 59.0 °F 54.9 °F 86% 29.77 in 9.0 mi SE 13.8 mph - N/A   Clear
4:56 AM 59.9 °F 52.9 °F 78% 29.77 in 9.0 mi SE 12.7 mph - N/A   Clear
5:56 AM 59.0 °F 54.0 °F 83% 29.81 in 9.0 mi West 11.5 mph 21.9 mph N/A   Mostly Cloudy
6:56 AM 56.8 °F 54.0 °F 90% 29.81 in 7.0 mi NE 4.6 mph - N/A   Clear
7:56 AM 55.9 °F 54.0 °F 93% 29.84 in 2.0 mi ENE 5.8 mph - 0.04 in Rain Rain
8:09 AM 55.4 °F 53.6 °F 94% 29.85 in 1.5 mi NE 5.8 mph - 0.06 in Rain Heavy Rain
8:12 AM 55.4 °F 53.6 °F 94% 29.84 in 1.0 mi NE 6.9 mph - 0.07 in Rain Heavy Rain
8:20 AM 55.4 °F 53.6 °F 94% 29.85 in 1.2 mi ENE 4.6 mph - 0.08 in Rain Light Rain
8:35 AM 53.6 °F 53.6 °F 100% 29.86 in 1.0 mi East 3.5 mph - 0.13 in Rain Heavy Rain
8:46 AM 53.6 °F 53.6 °F 100% 29.87 in 0.8 mi Variable 3.5 mph - 0.19 in Rain Heavy Rain
8:56 AM 54.0 °F 54.0 °F 100% 29.84 in 0.8 mi East 6.9 mph - 0.25 in Rain Heavy Rain
9:13 AM 53.6 °F 53.6 °F 100% 29.82 in 1.2 mi East 10.4 mph - 0.03 in Rain Rain
9:21 AM 53.6 °F 53.6 °F 100% 29.81 in 1.0 mi East 10.4 mph - 0.05 in Rain Rain
9:31 AM 55.4 °F 55.4 °F 100% 29.81 in 1.5 mi ESE 10.4 mph - 0.06 in Rain Light Rain
9:41 AM 55.4 °F 55.4 °F 100% 29.80 in 1.2 mi ESE 15.0 mph - 0.11 in Rain Rain
9:56 AM 55.9 °F 55.9 °F 100% 29.75 in 2.0 mi East 13.8 mph - 0.11 in Rain Light Rain
10:04 AM 55.4 °F 55.4 °F 100% 29.80 in 2.5 mi North 15.0 mph - 0.00 in Rain Light Rain
10:14 AM 57.2 °F 57.2 °F 100% 29.79 in 4.0 mi East 10.4 mph - 0.00 in   Scattered Clouds
10:29 AM 57.2 °F 57.2 °F 100% 29.80 in 5.0 mi SE 9.2 mph - 0.00 in   Mostly Cloudy
10:31 AM 57.2 °F 57.2 °F 100% 29.80 in 5.0 mi SSE 11.5 mph - 0.00 in   Mostly Cloudy
10:49 AM 57.2 °F 57.2 °F 100% 29.80 in 2.5 mi ESE 10.4 mph - 0.03 in Rain Light Rain
10:56 AM 57.9 °F 56.8 °F 96% 29.78 in 3.0 mi ESE 13.8 mph - 0.03 in Rain Light Rain
11:56 AM 59.9 °F 59.0 °F 97% 29.75 in 6.0 mi SE 12.7 mph - 0.01 in   Clear
12:56 PM 61.9 °F 59.0 °F 90% 29.76 in 7.0 mi SE 6.9 mph - N/A   Partly Cloudy
1:56 PM 61.9 °F 59.9 °F 93% 29.77 in 3.0 mi SE 9.2 mph - 0.00 in Rain Light Rain
2:19 PM 62.6 °F 60.8 °F 94% 29.78 in 2.5 mi SSE 6.9 mph - 0.02 in Rain Light Rain
2:28 PM 62.6 °F 60.8 °F 94% 29.77 in 3.0 mi SSE 6.9 mph - 0.02 in Rain Light Rain
2:38 PM 62.6 °F 60.8 °F 94% 29.76 in 3.0 mi SSE 9.2 mph - 0.03 in Rain Light Rain
2:56 PM 61.9 °F 61.0 °F 97% 29.73 in 5.0 mi SE 9.2 mph - 0.04 in Rain Light Rain
3:56 PM 61.9 °F 61.0 °F 97% 29.71 in 5.0 mi SE 5.8 mph - 0.00 in Rain Light Rain
4:56 PM 61.9 °F 61.0 °F 97% 29.66 in 4.0 mi SE 5.8 mph - 0.01 in Rain Light Rain
5:56 PM 63.0 °F 61.0 °F 93% 29.64 in 5.0 mi SE 4.6 mph - 0.00 in Rain Light Rain
6:56 PM 61.9 °F 61.0 °F 97% 29.61 in 5.0 mi Calm Calm - 0.00 in Rain Light Rain
7:10 PM 60.8 °F 60.8 °F 100% 29.65 in 1.8 mi SW 6.9 mph - 0.10 in Rain Heavy Rain
7:13 PM 60.8 °F 60.8 °F 100% 29.64 in 1.0 mi Variable 3.5 mph - 0.16 in Rain Heavy Rain
7:20 PM 60.8 °F 60.8 °F 100% 29.64 in 1.0 mi SW 4.6 mph - 0.18 in Rain Light Rain
7:25 PM 60.8 °F 60.8 °F 100% 29.64 in 0.8 mi South 4.6 mph - 0.23 in   Overcast
7:32 PM 60.8 °F 60.8 °F 100% 29.64 in 1.0 mi WSW 6.9 mph - 0.24 in Rain , Thunderstorm Light Thunderstorms and Rain
7:34 PM 60.8 °F 60.8 °F 100% 29.63 in 1.5 mi WSW 6.9 mph - 0.24 in Rain , Thunderstorm Rain
7:36 PM 60.8 °F 60.8 °F 100% 29.63 in 3.0 mi West 10.4 mph - 0.25 in Rain Rain
7:40 PM 60.8 °F 60.8 °F 100% 29.63 in 4.0 mi West 12.7 mph - 0.25 in Rain Light Rain
7:49 PM 60.8 °F 60.8 °F 100% 29.64 in 1.8 mi WSW 13.8 mph - 0.34 in Rain Heavy Rain
7:56 PM 59.0 °F 59.0 °F 100% 29.63 in 1.5 mi West 9.2 mph - 0.37 in Rain Light Rain
8:02 PM 59.0 °F 59.0 °F 100% 29.64 in 3.0 mi West 8.1 mph - 0.02 in Rain Rain
8:09 PM 59.0 °F 59.0 °F 100% 29.65 in 2.0 mi West 10.4 mph - 0.07 in Rain Heavy Rain
8:16 PM 59.0 °F 59.0 °F 100% 29.65 in 2.0 mi West 15.0 mph - 0.12 in Rain Heavy Rain
8:23 PM 59.0 °F 59.0 °F 100% 29.65 in 1.2 mi West 11.5 mph - 0.18 in Rain Heavy Rain
8:31 PM 59.0 °F 59.0 °F 100% 29.66 in 2.0 mi West 8.1 mph - 0.21 in Rain Rain
8:36 PM 59.0 °F 59.0 °F 100% 29.66 in 3.0 mi WSW 8.1 mph - 0.21 in Rain Rain
8:44 PM 59.0 °F 59.0 °F 100% 29.66 in 3.0 mi SW 5.8 mph - 0.23 in Rain Rain
8:49 PM 59.0 °F 59.0 °F 100% 29.66 in 2.5 mi SW 5.8 mph - 0.25 in Rain Rain
8:56 PM 59.0 °F 59.0 °F 100% 29.65 in 2.5 mi WSW 6.9 mph - 0.27 in Rain Rain
9:01 PM 59.0 °F 59.0 °F 100% 29.65 in 3.0 mi WSW 5.8 mph - 0.01 in Rain Rain
9:11 PM 59.0 °F 59.0 °F 100% 29.65 in 3.0 mi WSW 5.8 mph - 0.04 in Rain Rain
9:13 PM 57.2 °F 57.2 °F 100% 29.65 in 2.5 mi WSW 6.9 mph - 0.05 in Rain Rain
9:23 PM 57.2 °F 57.2 °F 100% 29.65 in 3.0 mi WSW 9.2 mph - 0.07 in Rain Rain
9:41 PM 57.2 °F 57.2 °F 100% 29.63 in 3.0 mi Calm Calm - 0.11 in Rain Light Rain
9:56 PM 57.9 °F 56.8 °F 96% 29.59 in 3.0 mi East 8.1 mph - 0.14 in Rain Rain
10:56 PM 56.8 °F 56.8 °F 100% 29.59 in 5.0 mi South 6.9 mph - 0.01 in   Overcast
11:05 PM 57.2 °F 57.2 °F 100% 29.59 in 5.0 mi SSE 5.8 mph - N/A   Overcast
11:32 PM 55.4 °F 55.4 °F 100% 29.59 in 8.0 mi South 6.9 mph - N/A   Overcast
11:56 PM 56.8 °F 56.8 °F 100% 29.59 in 4.0 mi SW 6.9 mph - N/A   Overcast